[[{"header":{"parameterUnit":"m.s-1","parameterCategory":2,"la1":30.2991,"la2":30.254,"lo1":-89.0895,"lo2":-89.0444,"dy":0.0017,"dx":0.0017,"nx":28,"ny":28,"refTime":"2025-09-11T09:00:00:Z","depth":"0","parameterNumber":2,"parameterNumberName":"U-component_of_CURRENTS"},"data":[0,0,0,0,0,0,0,0,0,0,0,0,0,0,0,0,0,0,0,0,0,0,0,0,0,0,0,0,0,0,0,0,0,0,0,0,0,0,0,0,0,0,0,0,0,0,0,0,0,0,0,0,0,0,0,0,0,0,-0.4021,-0.4022,0,-0.4012,-0.4011,-0.4011,-0.3885,-0.3882,-0.388,-0.3877,-0.3694,-0.3692,-0.3689,0,0,0,0,0,0,0,0,0,0,0,0,0,-0.3835,-0.3839,-0.4021,-0.4022,-0.4022,-0.4012,-0.4011,-0.401,-0.3885,-0.3882,-0.3879,-0.3876,-0.3695,-0.3692,-0.3689,0,0,0,0,0,0,0,0,0,0,0,0,0,-0.3874,-0.384,-0.4021,-0.3963,-0.3958,-0.4012,-0.4011,-0.401,-0.3886,-0.3882,-0.3878,-0.3874,-0.3696,-0.3692,-0.3689,-0.3744,0,0,-0.3677,-0.3676,0,0,0,0,0,0,0,0,-0.3872,-0.388,-0.3971,-0.3967,-0.3962,-0.3951,-0.3879,-0.3915,-0.3887,-0.3907,-0.3877,-0.3873,-0.3771,-0.3761,-0.3761,-0.3735,-0.3727,-0.3677,-0.3675,-0.3673,-0.3672,0,0,0,0,0,0,0,-0.387,-0.3879,-0.4011,-0.3972,-0.3967,-0.3905,-0.3907,-0.3885,-0.3852,-0.3905,-0.3897,-0.3908,-0.3766,-0.3765,-0.3755,-0.3725,-0.3677,-0.3674,-0.3672,-0.367,-0.3712,-0.3715,0,0,0,0,0,0,-0.3894,-0.3878,-0.4011,-0.4011,-0.3914,-0.3913,-0.3914,-0.3953,-0.3856,-0.3841,-0.3911,-0.3902,-0.3773,-0.376,-0.3748,-0.3705,-0.3673,-0.367,-0.3668,-0.3709,-0.3713,-0.3716,0,0,0,0,0,0,-0.3891,-0.3908,-0.4012,-0.3947,-0.3956,-0.3922,-0.3966,-0.3955,-0.3941,-0.3864,-0.3843,-0.3906,-0.377,-0.3754,-0.3746,-0.37,-0.3668,-0.3665,-0.3705,-0.371,-0.3714,-0.3683,0,0,0,0,0,0,-0.3886,-0.3907,-0.3938,-0.395,-0.3961,-0.4057,-0.397,-0.3958,-0.3958,-0.3945,-0.3855,-0.3834,-0.3765,-0.3753,-0.3743,-0.3694,-0.3662,-0.37,-0.3707,-0.3713,-0.368,-0.3686,-0.3692,0,0,0,0,0,-0.388,-0.3902,-0.3941,-0.3956,-0.4009,-0.406,-0.406,-0.4015,-0.3962,-0.3981,-0.3924,-0.3836,-0.3784,-0.3754,-0.3741,-0.3689,-0.3697,-0.3705,-0.3712,-0.3677,-0.3685,-0.3692,0,0,0,0,0,0,-0.3825,-0.3895,-0.3934,-0.3979,-0.4041,-0.4041,-0.4019,-0.403,-0.4005,-0.3961,-0.3885,-0.3865,-0.3831,-0.3815,-0.3783,-0.3737,-0.3724,-0.373,-0.3702,-0.3709,-0.3715,-0.3584,-0.3659,0,0,0,0,0,-0.3848,-0.389,-0.3966,-0.4013,-0.402,-0.4038,-0.4046,-0.4046,-0.4031,-0.4013,-0.397,-0.3917,-0.3863,-0.3829,-0.38,-0.3789,-0.371,-0.3758,-0.3763,-0.3768,-0.3664,-0.3553,-0.3534,-0.3741,-0.3741,-0.374,0,0,-0.386,-0.3888,-0.3926,-0.4007,-0.4011,-0.3989,-0.4026,-0.4042,-0.4009,-0.3999,-0.3927,-0.3938,-0.3875,-0.3839,-0.3823,-0.3806,-0.3696,-0.3777,-0.3779,-0.3671,-0.3558,-0.3536,-0.3516,-0.3746,-0.3745,-0.3744,0,0,-0.3799,-0.3905,-0.3871,-0.3916,-0.3951,-0.3972,-0.3986,-0.4023,-0.4013,-0.4031,-0.3974,-0.3955,-0.3938,-0.3843,-0.3793,-0.3829,-0.3737,-0.3873,-0.3763,-0.3661,-0.3638,-0.3617,-0.3576,-0.3551,-0.3865,-0.3865,-0.3865,0,-0.379,-0.3762,-0.3879,-0.3825,-0.3817,-0.3949,-0.3881,-0.3917,-0.3963,-0.3939,-0.3999,-0.3908,-0.3891,-0.3731,-0.3759,-0.3812,-0.3784,-0.3725,-0.3653,-0.363,-0.3609,-0.357,-0.3542,-0.3864,-0.3864,-0.3864,-0.3864,0,-0.3659,-0.3655,-0.3626,-0.3603,-0.3642,-0.3628,-0.37,-0.3748,-0.379,-0.381,-0.3761,-0.3778,-0.3701,-0.3737,-0.3747,-0.36,-0.3645,-0.3673,-0.36,-0.3583,-0.355,-0.3521,-0.3863,-0.3864,-0.3864,-0.3864,0,0,-0.3556,-0.3533,-0.351,-0.3479,-0.3516,-0.3539,-0.3511,-0.3513,-0.3477,-0.356,-0.3473,-0.344,-0.3493,-0.3443,-0.3479,-0.3406,-0.3306,-0.3487,-0.3482,-0.3381,-0.3125,-0.3087,-0.3053,-0.3333,-0.3327,-0.3321,-0.319,0,-0.3384,-0.3229,-0.3267,-0.3172,-0.3111,-0.3238,-0.3211,-0.3264,-0.333,-0.3329,-0.333,-0.3293,-0.3367,-0.3373,-0.3297,-0.3325,-0.3217,-0.334,-0.3206,-0.3201,-0.3112,-0.3011,-0.2895,-0.2758,-0.3161,-0.3156,-0.3153,0,-0.3194,-0.3116,-0.2952,-0.296,-0.2941,-0.2926,-0.2935,-0.2948,-0.2991,-0.3046,-0.3009,-0.307,-0.2983,-0.3087,-0.2956,-0.3053,-0.3038,-0.3048,-0.3045,-0.2956,-0.3102,-0.283,-0.269,-0.2697,-0.3108,-0.3112,-0.3115,0,-0.3014,-0.2914,-0.277,-0.2766,-0.2777,-0.2749,-0.2781,-0.2836,-0.286,-0.287,-0.2903,-0.2814,-0.2826,-0.2751,-0.283,-0.2888,-0.2715,-0.2799,-0.2705,-0.2708,-0.2537,-0.2534,-0.2298,-0.2585,-0.2586,-0.2586,-0.2586,0,-0.2806,-0.2718,-0.2689,-0.2621,-0.2532,-0.2609,-0.2559,-0.2611,-0.2664,-0.2662,-0.2742,-0.2718,-0.2747,-0.2717,-0.2732,-0.2636,-0.2616,-0.2592,-0.2615,-0.2546,-0.2544,-0.2487,-0.2547,-0.2581,-0.2582,-0.2583,-0.2584,0,-0.2646,-0.2602,-0.2483,-0.244,-0.2447,-0.2402,-0.2481,-0.2472,-0.2546,-0.255,-0.2556,-0.2632,-0.2586,-0.2605,-0.2528,-0.2517,-0.2386,-0.239,-0.2345,-0.236,-0.2263,-0.2329,-0.2059,-0.1998,-0.2219,-0.2216,-0.2214,0,-0.2565,-0.2458,-0.2362,-0.2314,-0.2292,-0.2275,-0.2286,-0.2391,-0.2411,-0.2489,-0.2474,-0.2467,-0.2437,-0.234,-0.2284,-0.2196,-0.2247,-0.2062,-0.2082,-0.2139,-0.2231,-0.23,-0.2274,-0.1905,-0.19,-0.1896,-0.1893,0,-0.2413,-0.2355,-0.2238,-0.2131,-0.2105,-0.2105,-0.2136,-0.2149,-0.2268,-0.2295,-0.2298,-0.2275,-0.2196,-0.2071,-0.1999,-0.1943,-0.2013,-0.198,-0.2,-0.187,-0.1954,-0.1952,-0.2194,-0.186,-0.1863,-0.1866,-0.1868,-0.1869,-0.2332,-0.2203,-0.2045,-0.194,-0.192,-0.1914,-0.1876,-0.1954,-0.1978,-0.1986,-0.2078,-0.1998,-0.1947,-0.1808,-0.1753,-0.1644,-0.1725,-0.1616,-0.1672,-0.1723,-0.1668,-0.1856,-0.1584,-0.1586,-0.1587,-0.1589,-0.159,0,-0.2233,-0.2055,-0.1903,-0.1758,-0.1679,-0.1736,-0.1752,-0.1703,-0.1686,-0.1708,-0.1706,-0.1666,-0.157,-0.1534,-0.1452,-0.1383,-0.1363,-0.1377,-0.1425,-0.1398,-0.1494,-0.1486,-0.1224,-0.1224,-0.1224,-0.1224,-0.1224,-0.1224,-0.2136,-0.1936,-0.179,-0.1551,-0.1474,-0.1358,-0.1335,-0.1307,-0.1279,-0.1206,-0.1179,-0.1165,-0.1272,-0.1455,-0.1384,-0.1308,-0.1311,-0.1255,-0.1317,-0.1412,-0.144,-0.1467,-0.1467,-0.1206,-0.1206,-0.1143,-0.1143,-0.1143]},{"header":{"parameterUnit":"m.s-1","parameterCategory":2,"la1":30.2991,"la2":30.254,"lo1":-89.0895,"lo2":-89.0444,"dy":0.0017,"dx":0.0017,"nx":28,"ny":28,"refTime":"2025-09-11T09:00:00:Z","depth":"0","parameterNumber":3,"parameterNumberName":"V-component_of_CURRENTS"},"data":[0,0,0,0,0,0,0,0,0,0,0,0,0,0,0,0,0,0,0,0,0,0,0,0,0,0,0,0,0,0,0,0,0,0,0,0,0,0,0,0,0,0,0,0,0,0,0,0,0,0,0,0,0,0,0,0,0,0,-0.0092,-0.0091,0,0.0046,0.0047,0.0048,0.0111,0.0111,0.0111,0.0111,0.0264,0.0268,0.0272,0,0,0,0,0,0,0,0,0,0,0,0,0,-0.0258,-0.0256,-0.0092,-0.009,-0.0088,0.0045,0.0047,0.0049,0.0111,0.0111,0.0111,0.0111,0.0263,0.0268,0.0272,0,0,0,0,0,0,0,0,0,0,0,0,0,-0.0163,-0.0256,-0.0093,-0.0039,-0.0033,0.0045,0.0047,0.0049,0.0111,0.0111,0.0111,0.0111,0.0261,0.0267,0.0273,0.0307,0,0,0.0291,0.0294,0,0,0,0,0,0,0,0,-0.0168,-0.0157,-0.0049,-0.0043,-0.0036,0.0064,0.0045,0.0137,0.0111,0.0053,0.0111,0.0111,0.02,0.0211,0.0233,0.0314,0.032,0.0292,0.0295,0.0298,0.03,0,0,0,0,0,0,0,-0.0175,-0.0162,-0.0041,-0.0047,-0.0039,-0.0007,0.0006,0.0062,0.0122,0.0058,0.0064,0.0083,0.0204,0.0227,0.0237,0.0323,0.0292,0.0297,0.0301,0.0303,0.0457,0.0458,0,0,0,0,0,0,-0.0189,-0.0169,-0.0045,-0.0036,-0.01,-0.0004,0.001,0.0029,0.0122,0.0136,0.0083,0.0086,0.0216,0.023,0.0242,0.0276,0.0298,0.0303,0.0307,0.0457,0.0457,0.0458,0,0,0,0,0,0,-0.0193,-0.0179,-0.005,-0.0097,-0.0078,-0.0002,0.0019,0.0032,0.0054,0.0141,0.0155,0.0092,0.0217,0.0234,0.0291,0.0283,0.0306,0.0312,0.0456,0.0457,0.0458,0.0351,0,0,0,0,0,0,-0.0198,-0.0181,-0.0185,-0.0098,-0.0076,-0.0011,0.002,0.0035,0.0068,0.0072,0.0154,0.0168,0.0218,0.0282,0.0297,0.0291,0.0316,0.0455,0.0456,0.0457,0.0354,0.0348,0.0343,0,0,0,0,0,-0.0205,-0.0213,-0.0186,-0.0171,-0.0079,-0.0011,0.0003,0.0056,0.0067,0.0076,0.0131,0.0165,0.0299,0.0287,0.0305,0.03,0.0455,0.0456,0.0457,0.0356,0.0349,0.0343,0,0,0,0,0,0,-0.0302,-0.0204,-0.0173,-0.0156,-0.0089,0.0001,0.0006,0.0049,0.0099,0.0097,0.0173,0.0192,0.0242,0.0291,0.0275,0.0351,0.0383,0.0387,0.03,0.0294,0.0288,0.0239,0.0321,0,0,0,0,0,-0.032,-0.0296,-0.0198,-0.0188,-0.0158,-0.0078,-0.0049,-0.0005,0.0058,0.0079,0.0144,0.0207,0.0262,0.029,0.0354,0.0391,0.043,0.0402,0.0397,0.0391,0.0366,0.0413,0.0409,0.0462,0.0462,0.0462,0,0,-0.036,-0.0301,-0.0292,-0.0206,-0.0157,-0.0129,-0.0062,-0.0021,-0.0003,0.0089,0.0123,0.0195,0.0271,0.0315,0.0341,0.0351,0.0404,0.0393,0.0387,0.0364,0.0414,0.0408,0.0403,0.0463,0.0462,0.0462,0,0,-0.0424,-0.0371,-0.0371,-0.0317,-0.0236,-0.0178,-0.0168,-0.0072,-0.0038,0.0016,0.0082,0.014,0.0235,0.028,0.0314,0.0317,0.0379,0.035,0.0273,0.032,0.0315,0.0311,0.0372,0.0375,0.034,0.0339,0.0339,0,-0.0482,-0.0451,-0.0364,-0.0347,-0.0314,-0.0208,-0.0203,-0.0153,-0.0051,-0.0026,0.0011,0.0142,0.0209,0.0247,0.0249,0.0299,0.0344,0.0285,0.0309,0.0306,0.0303,0.0367,0.0371,0.0335,0.0335,0.0336,0.0336,0,-0.0531,-0.0509,-0.0507,-0.0446,-0.0406,-0.0377,-0.0289,-0.0249,-0.0189,-0.0127,-0.0059,0.004,0.0113,0.015,0.0196,0.0218,0.0264,0.0298,0.0312,0.029,0.0361,0.0366,0.0327,0.0329,0.0331,0.0332,0,0,-0.0647,-0.0558,-0.0558,-0.0536,-0.0448,-0.0413,-0.0396,-0.033,-0.0309,-0.0219,-0.0187,-0.0097,-0.003,0.0013,0.0094,0.0128,0.0162,0.0193,0.0198,0.023,0.0279,0.033,0.0342,0.0201,0.0201,0.0201,0.034,0,-0.0708,-0.0694,-0.0635,-0.0629,-0.0608,-0.052,-0.0503,-0.0439,-0.0362,-0.03,-0.0212,-0.0142,-0.0085,-0.0037,0.0,0.0139,0.017,0.0122,0.0315,0.0321,0.0349,0.0347,0.0402,0.0531,0.0346,0.0347,0.0348,0,-0.0772,-0.0741,-0.0744,-0.0684,-0.0671,-0.0661,-0.0598,-0.0566,-0.0473,-0.0413,-0.0347,-0.0252,-0.0177,-0.0121,0.004,0.0011,0.0117,0.0211,0.022,0.0299,0.0381,0.0524,0.055,0.0714,0.0357,0.0357,0.0356,0,-0.0857,-0.082,-0.0817,-0.0796,-0.072,-0.0719,-0.0685,-0.0606,-0.0571,-0.048,-0.0433,-0.0331,-0.0247,-0.0133,0.006,0.0054,0.025,0.0276,0.0413,0.0419,0.0518,0.0532,0.0699,0.0357,0.0356,0.0356,0.0355,0,-0.0921,-0.0923,-0.0855,-0.0846,-0.0852,-0.0784,-0.0776,-0.0725,-0.0648,-0.0597,-0.0495,-0.0422,-0.0247,-0.0103,0.0041,0.0255,0.0238,0.0391,0.045,0.0487,0.0496,0.0685,0.0735,0.0361,0.036,0.0359,0.0358,0,-0.1004,-0.0961,-0.095,-0.0892,-0.0885,-0.0886,-0.0838,-0.082,-0.074,-0.067,-0.0645,-0.0478,-0.0282,-0.0097,0.0135,0.0254,0.0548,0.0512,0.0549,0.0608,0.0863,0.0903,0.1103,0.1205,0.0675,0.0677,0.0678,0,-0.1041,-0.104,-0.0996,-0.0996,-0.0972,-0.0962,-0.0955,-0.0882,-0.0849,-0.0689,-0.0656,-0.0461,-0.0291,0.0061,0.0298,0.0555,0.0662,0.0741,0.0719,0.0877,0.0967,0.0995,0.1067,0.0829,0.0832,0.0834,0.0836,0,-0.1098,-0.1079,-0.1059,-0.1061,-0.1059,-0.1056,-0.1032,-0.102,-0.0908,-0.0797,-0.0619,-0.0469,-0.0133,0.0195,0.0508,0.0657,0.0866,0.0794,0.0956,0.1086,0.113,0.1258,0.0747,0.0856,0.0854,0.0852,0.0851,0.0851,-0.1138,-0.1137,-0.1108,-0.1112,-0.112,-0.1126,-0.1112,-0.1038,-0.0941,-0.0672,-0.0551,-0.0157,0.0134,0.0592,0.0748,0.111,0.1049,0.1223,0.1258,0.1272,0.1362,0.0889,0.1058,0.1057,0.1057,0.1056,0.1056,0,-0.1164,-0.1156,-0.1161,-0.1154,-0.1173,-0.1163,-0.1138,-0.1068,-0.0914,-0.0519,-0.0239,0.0346,0.0693,0.1,0.139,0.1578,0.1614,0.1667,0.1731,0.1782,0.1382,0.1381,0.163,0.163,0.163,0.1629,0.1629,0.1629,-0.1166,-0.1172,-0.1162,-0.1185,-0.1193,-0.1181,-0.1157,-0.1005,-0.073,-0.0115,0.0437,0.0813,0.116,0.1624,0.1988,0.2015,0.2188,0.2155,0.2243,0.1975,0.1937,0.19,0.1914,0.2271,0.2271,0.2657,0.2661,0.2664]}],[{"header":{"parameterUnit":"m.s-1","parameterCategory":2,"la1":30.2991,"la2":30.254,"lo1":-89.0895,"lo2":-89.0444,"dy":0.0017,"dx":0.0017,"nx":28,"ny":28,"refTime":"2025-09-11T09:00:00:Z","depth":"2","parameterNumber":2,"parameterNumberName":"U-component_of_CURRENTS"},"data":[0,0,0,0,0,0,0,0,0,0,0,0,0,0,0,0,0,0,0,0,0,0,0,0,0,0,0,0,0,0,0,0,0,0,0,0,0,0,0,0,0,0,0,0,0,0,0,0,0,0,0,0,0,0,0,0,0,0,-0.2274,-0.2275,0,-0.2319,-0.2319,-0.232,-0.2294,-0.2293,-0.2292,-0.2291,-0.2365,-0.2368,-0.2371,0,0,0,0,0,0,0,0,0,0,0,0,0,-0.2098,-0.2101,-0.2274,-0.2275,-0.2276,-0.2319,-0.2319,-0.232,-0.2294,-0.2293,-0.2292,-0.2291,-0.2364,-0.2368,-0.2371,0,0,0,0,0,0,0,0,0,0,0,0,0,-0.216,-0.2102,-0.2274,-0.227,-0.227,-0.2319,-0.2319,-0.232,-0.2295,-0.2293,-0.2291,-0.229,-0.2363,-0.2367,-0.2372,-0.2432,0,0,-0.2385,-0.2387,0,0,0,0,0,0,0,0,-0.2157,-0.2166,-0.2269,-0.227,-0.227,-0.2301,-0.2284,-0.2359,-0.2295,-0.2283,-0.2291,-0.2289,-0.2349,-0.2354,-0.2363,-0.2435,-0.2438,-0.2386,-0.2388,-0.239,-0.2391,0,0,0,0,0,0,0,-0.2152,-0.2164,-0.229,-0.227,-0.2271,-0.2242,-0.2249,-0.2298,-0.2324,-0.2284,-0.2283,-0.2291,-0.2349,-0.2359,-0.2365,-0.2439,-0.2385,-0.2389,-0.2392,-0.2394,-0.2515,-0.2516,0,0,0,0,0,0,-0.2157,-0.2161,-0.2289,-0.2291,-0.221,-0.2247,-0.2255,-0.2291,-0.2322,-0.2326,-0.2293,-0.229,-0.2352,-0.236,-0.2367,-0.2412,-0.239,-0.2394,-0.2397,-0.2515,-0.2515,-0.2516,0,0,0,0,0,0,-0.2154,-0.2169,-0.2287,-0.2226,-0.2239,-0.2252,-0.2293,-0.2293,-0.232,-0.2329,-0.2332,-0.232,-0.2351,-0.2361,-0.2396,-0.2415,-0.2396,-0.24,-0.2514,-0.2515,-0.2516,-0.2519,0,0,0,0,0,0,-0.2149,-0.2168,-0.2197,-0.2228,-0.2243,-0.234,-0.2294,-0.2295,-0.2327,-0.2324,-0.2354,-0.2358,-0.2351,-0.239,-0.2401,-0.2421,-0.2404,-0.2513,-0.2515,-0.2516,-0.2518,-0.252,-0.2521,0,0,0,0,0,-0.2143,-0.2197,-0.2199,-0.2214,-0.2284,-0.2342,-0.2348,-0.2348,-0.233,-0.2361,-0.2349,-0.2358,-0.2404,-0.2394,-0.2407,-0.2429,-0.2513,-0.2514,-0.2515,-0.2517,-0.2519,-0.2521,0,0,0,0,0,0,-0.2131,-0.22,-0.2203,-0.2274,-0.2313,-0.2339,-0.2364,-0.2369,-0.2387,-0.238,-0.2375,-0.2379,-0.2417,-0.2428,-0.2417,-0.2465,-0.2458,-0.2462,-0.2455,-0.2457,-0.2459,-0.2451,-0.2408,0,0,0,0,0,-0.2146,-0.2202,-0.2255,-0.2307,-0.2332,-0.2353,-0.2375,-0.2386,-0.2404,-0.241,-0.2405,-0.241,-0.2434,-0.2447,-0.2468,-0.2509,-0.2494,-0.2528,-0.253,-0.2531,-0.2532,-0.2513,-0.2513,-0.252,-0.252,-0.252,0,0,-0.2132,-0.2196,-0.2211,-0.2307,-0.233,-0.2365,-0.2363,-0.2416,-0.2428,-0.242,-0.2417,-0.2429,-0.2448,-0.2471,-0.2489,-0.2481,-0.2519,-0.2532,-0.2533,-0.2534,-0.2514,-0.2513,-0.2513,-0.2521,-0.2521,-0.2521,0,0,-0.2148,-0.2216,-0.2259,-0.2305,-0.2375,-0.2396,-0.2421,-0.2452,-0.2455,-0.2476,-0.2458,-0.247,-0.2501,-0.2498,-0.2509,-0.2542,-0.2533,-0.2559,-0.2558,-0.254,-0.2538,-0.2537,-0.2506,-0.2502,-0.2552,-0.2552,-0.2552,0,-0.2115,-0.221,-0.2276,-0.2333,-0.2363,-0.2411,-0.2446,-0.2467,-0.2491,-0.2493,-0.2475,-0.249,-0.2508,-0.2533,-0.253,-0.2547,-0.2528,-0.2548,-0.254,-0.2538,-0.2537,-0.2506,-0.2501,-0.2553,-0.2552,-0.2552,-0.2552,0,-0.2173,-0.223,-0.2266,-0.2347,-0.239,-0.2444,-0.2483,-0.2507,-0.2509,-0.251,-0.2529,-0.2528,-0.2532,-0.2544,-0.2549,-0.2559,-0.2545,-0.2547,-0.2531,-0.2536,-0.2503,-0.2498,-0.2553,-0.2553,-0.2553,-0.2553,0,0,-0.2118,-0.2267,-0.2276,-0.2305,-0.241,-0.2444,-0.2484,-0.2531,-0.2537,-0.2544,-0.2538,-0.2564,-0.2555,-0.2567,-0.2572,-0.2555,-0.2529,-0.2547,-0.2546,-0.2509,-0.2474,-0.2391,-0.2378,-0.2525,-0.2525,-0.2524,-0.245,0,-0.2127,-0.2225,-0.2307,-0.2356,-0.2395,-0.2461,-0.2485,-0.2528,-0.2548,-0.2549,-0.2564,-0.2564,-0.2569,-0.2566,-0.2555,-0.2547,-0.2518,-0.2548,-0.2482,-0.248,-0.2399,-0.2371,-0.2195,-0.2108,-0.2446,-0.2445,-0.2444,0,-0.2151,-0.2221,-0.228,-0.236,-0.2381,-0.2409,-0.2466,-0.2498,-0.2537,-0.2549,-0.2561,-0.2568,-0.2571,-0.2559,-0.2527,-0.2545,-0.251,-0.2487,-0.2484,-0.2402,-0.2388,-0.2161,-0.2087,-0.2436,-0.2437,-0.2437,-0.2438,0,-0.2083,-0.2192,-0.2239,-0.2269,-0.2366,-0.2388,-0.2431,-0.2483,-0.2504,-0.254,-0.2546,-0.2558,-0.2547,-0.2523,-0.2494,-0.2506,-0.2438,-0.2447,-0.2333,-0.2327,-0.2162,-0.2142,-0.2401,-0.2401,-0.2401,-0.2401,-0.2402,0,-0.2065,-0.2091,-0.2205,-0.2225,-0.2253,-0.2336,-0.2359,-0.2405,-0.246,-0.2467,-0.2528,-0.2516,-0.2535,-0.2508,-0.2484,-0.2387,-0.2426,-0.232,-0.2298,-0.2158,-0.2139,-0.242,-0.2423,-0.2399,-0.2399,-0.24,-0.24,0,-0.196,-0.2049,-0.2095,-0.2198,-0.222,-0.223,-0.2312,-0.2323,-0.2396,-0.2407,-0.2418,-0.2471,-0.2427,-0.2431,-0.238,-0.2348,-0.2284,-0.2237,-0.2068,-0.2027,-0.2188,-0.2192,-0.2097,-0.2093,-0.209,-0.2087,-0.2085,0,-0.1907,-0.193,-0.2043,-0.2055,-0.2094,-0.2133,-0.2155,-0.2261,-0.2281,-0.2357,-0.2345,-0.2342,-0.2291,-0.221,-0.2141,-0.206,-0.2165,-0.1879,-0.187,-0.2166,-0.2154,-0.2164,-0.2172,-0.1649,-0.1643,-0.1639,-0.1635,0,-0.1786,-0.1842,-0.1887,-0.193,-0.1957,-0.1992,-0.2037,-0.2053,-0.2163,-0.2183,-0.2177,-0.2146,-0.2066,-0.19,-0.1828,-0.1769,-0.1885,-0.1782,-0.2114,-0.1763,-0.174,-0.1731,-0.1754,-0.1595,-0.1599,-0.1602,-0.1604,-0.1605,-0.1664,-0.1685,-0.1756,-0.1781,-0.1813,-0.1825,-0.18,-0.1864,-0.188,-0.1877,-0.1948,-0.1847,-0.1819,-0.1587,-0.1501,-0.1447,-0.1575,-0.1532,-0.1547,-0.1567,-0.1538,-0.1511,-0.1317,-0.1319,-0.1322,-0.1323,-0.1325,0,-0.1477,-0.155,-0.1591,-0.1624,-0.1599,-0.167,-0.1691,-0.1639,-0.1599,-0.163,-0.1597,-0.1414,-0.1294,-0.1278,-0.1109,-0.1086,-0.109,-0.1062,-0.1072,-0.1111,-0.1146,-0.1098,-0.0759,-0.0758,-0.0756,-0.0755,0,0,-0.1393,-0.1387,-0.1458,-0.1397,-0.1407,-0.1322,-0.1301,-0.1257,-0.1242,-0.1169,-0.1127,-0.1207,-0.1219,-0.0992,-0.0937,-0.0817,-0.0958,-0.0773,-0.1221,-0.1269,-0.1303,-0.1403,-0.1371,0,0,0,0,0]},{"header":{"parameterUnit":"m.s-1","parameterCategory":2,"la1":30.2991,"la2":30.254,"lo1":-89.0895,"lo2":-89.0444,"dy":0.0017,"dx":0.0017,"nx":28,"ny":28,"refTime":"2025-09-11T09:00:00:Z","depth":"2","parameterNumber":3,"parameterNumberName":"V-component_of_CURRENTS"},"data":[0,0,0,0,0,0,0,0,0,0,0,0,0,0,0,0,0,0,0,0,0,0,0,0,0,0,0,0,0,0,0,0,0,0,0,0,0,0,0,0,0,0,0,0,0,0,0,0,0,0,0,0,0,0,0,0,0,0,-0.0277,-0.0276,0,-0.0192,-0.0191,-0.019,-0.0131,-0.013,-0.013,-0.0129,0.0051,0.0055,0.0059,0,0,0,0,0,0,0,0,0,0,0,0,0,-0.0358,-0.0357,-0.0277,-0.0276,-0.0274,-0.0192,-0.0191,-0.019,-0.0131,-0.013,-0.013,-0.0129,0.0049,0.0054,0.006,0,0,0,0,0,0,0,0,0,0,0,0,0,-0.0303,-0.0356,-0.0277,-0.0235,-0.023,-0.0193,-0.0191,-0.019,-0.0131,-0.013,-0.0129,-0.0129,0.0048,0.0054,0.006,0.0085,0,0,0.008,0.0083,0,0,0,0,0,0,0,0,-0.0307,-0.03,-0.0242,-0.0238,-0.0232,-0.0171,-0.0154,-0.0093,-0.0131,-0.0169,-0.0129,-0.0128,-0.0015,-0.0003,0.0009,0.0094,0.0101,0.0081,0.0085,0.0087,0.0089,0,0,0,0,0,0,0,-0.031,-0.0304,-0.0244,-0.0241,-0.0235,-0.021,-0.0202,-0.0142,-0.0096,-0.0166,-0.0161,-0.0151,-0.0011,0.0003,0.0014,0.0104,0.0081,0.0086,0.009,0.0093,0.0237,0.0237,0,0,0,0,0,0,-0.0322,-0.0307,-0.0246,-0.0241,-0.0268,-0.0209,-0.02,-0.0192,-0.0098,-0.0084,-0.0152,-0.0149,-0.0009,0.0006,0.0021,0.0064,0.0087,0.0093,0.0097,0.0237,0.0237,0.0237,0,0,0,0,0,0,-0.0324,-0.0318,-0.025,-0.0272,-0.0261,-0.0209,-0.02,-0.019,-0.0171,-0.0089,-0.0073,-0.0141,-0.0008,0.0012,0.0065,0.0071,0.0096,0.0102,0.0237,0.0237,0.0237,0.0146,0,0,0,0,0,0,-0.0327,-0.0319,-0.0319,-0.0273,-0.0261,-0.0226,-0.02,-0.0189,-0.0166,-0.0161,-0.0074,-0.0057,-0.0006,0.0055,0.0071,0.0081,0.0107,0.0237,0.0237,0.0237,0.0149,0.0143,0.0138,0,0,0,0,0,-0.033,-0.0338,-0.032,-0.0312,-0.0262,-0.0226,-0.0218,-0.0178,-0.0167,-0.0158,-0.011,-0.006,0.0066,0.0059,0.0079,0.0091,0.0237,0.0237,0.0237,0.0152,0.0144,0.0138,0,0,0,0,0,0,-0.0376,-0.0331,-0.0311,-0.0304,-0.0266,-0.0216,-0.0211,-0.0182,-0.014,-0.0136,-0.0063,-0.0043,0.0007,0.0059,0.005,0.0132,0.0162,0.0165,0.009,0.0084,0.0078,0.0072,0.0113,0,0,0,0,0,-0.0386,-0.0382,-0.0328,-0.0325,-0.0308,-0.026,-0.0243,-0.0213,-0.017,-0.0151,-0.0093,-0.0032,0.0021,0.0058,0.0113,0.0159,0.0209,0.018,0.0175,0.0169,0.0178,0.0241,0.0241,0.0237,0.0237,0.0237,0,0,-0.0407,-0.038,-0.0379,-0.0335,-0.0306,-0.0285,-0.0248,-0.0225,-0.0206,-0.0136,-0.0099,-0.005,0.0026,0.0071,0.0099,0.0118,0.0194,0.0169,0.0164,0.0176,0.024,0.0241,0.0241,0.0236,0.0236,0.0236,0,0,-0.0444,-0.0419,-0.0423,-0.0391,-0.0346,-0.0312,-0.0306,-0.0253,-0.0226,-0.0187,-0.0136,-0.0088,-0.0004,0.0049,0.0086,0.0085,0.0156,0.0105,0.008,0.0139,0.014,0.0142,0.0189,0.0196,0.0107,0.0107,0.0107,0,-0.0471,-0.0461,-0.0419,-0.0407,-0.0387,-0.0327,-0.032,-0.0284,-0.0221,-0.0197,-0.0184,-0.0072,-0.0013,0.005,0.0044,0.0074,0.0113,0.0095,0.0131,0.0134,0.0137,0.0185,0.0194,0.0103,0.0103,0.0104,0.0104,0,-0.0501,-0.0489,-0.049,-0.0453,-0.0427,-0.0413,-0.0354,-0.0325,-0.0291,-0.0247,-0.0185,-0.0116,-0.0044,-0.0023,0.001,0.0063,0.0084,0.0108,0.0143,0.0131,0.0183,0.0194,0.0097,0.0098,0.0099,0.0101,0,0,-0.0571,-0.0522,-0.0523,-0.051,-0.045,-0.0434,-0.0401,-0.0349,-0.0326,-0.0264,-0.0228,-0.0148,-0.0106,-0.0061,-0.0008,0.0042,0.0085,0.0077,0.0082,0.0115,0.0209,0.0232,0.0246,0.0111,0.0112,0.0114,0.023,0,-0.0606,-0.0606,-0.0564,-0.0557,-0.0547,-0.0482,-0.0457,-0.0402,-0.0348,-0.0297,-0.0215,-0.0164,-0.012,-0.0095,-0.0035,0.0058,0.0111,0.0051,0.0225,0.023,0.0246,0.0259,0.0231,0.0334,0.024,0.0242,0.0244,0,-0.0645,-0.0637,-0.0643,-0.0602,-0.0592,-0.0579,-0.0527,-0.0493,-0.0402,-0.0359,-0.0284,-0.0217,-0.0127,-0.0099,0.0065,0.0023,0.0109,0.0178,0.0185,0.0251,0.0274,0.0337,0.0357,0.0262,0.026,0.0259,0.0258,0,-0.0716,-0.069,-0.0701,-0.0688,-0.0634,-0.0626,-0.0597,-0.0519,-0.0487,-0.0398,-0.0365,-0.0245,-0.0184,-0.0061,0.0088,0.0076,0.0266,0.0271,0.0377,0.0379,0.0416,0.0418,0.0387,0.0387,0.0387,0.0386,0.0386,0,-0.0765,-0.0771,-0.074,-0.0744,-0.0755,-0.0693,-0.0684,-0.0633,-0.0556,-0.051,-0.0405,-0.0339,-0.0172,-0.0041,0.0085,0.0271,0.0273,0.0384,0.0418,0.0381,0.038,0.0368,0.0364,0.0391,0.039,0.0389,0.0388,0,-0.083,-0.0811,-0.0821,-0.0792,-0.0788,-0.0797,-0.0751,-0.0734,-0.0654,-0.0589,-0.0566,-0.0403,-0.0228,-0.0053,0.0159,0.0269,0.0435,0.0499,0.0438,0.0463,0.0506,0.0496,0.0625,0.0627,0.0628,0.063,0.0631,0,-0.0857,-0.0873,-0.0875,-0.0891,-0.0881,-0.088,-0.0875,-0.0799,-0.0767,-0.0616,-0.0586,-0.041,-0.0256,0.006,0.027,0.0501,0.0497,0.0601,0.0577,0.0513,0.0534,0.0521,0.051,0.0584,0.0585,0.0585,0.0586,0,-0.0904,-0.0913,-0.0925,-0.0965,-0.0977,-0.098,-0.096,-0.0948,-0.0836,-0.0746,-0.0589,-0.0455,-0.015,0.0108,0.039,0.0517,0.0558,0.062,0.0596,0.052,0.0483,0.05,0.0489,0.0591,0.059,0.059,0.059,0.0589,-0.0932,-0.0968,-0.0992,-0.1027,-0.105,-0.1061,-0.1052,-0.0996,-0.0919,-0.0757,-0.0615,-0.0382,-0.0134,0.0268,0.0469,0.0636,0.0638,0.068,0.0675,0.067,0.0637,0.0604,0.0728,0.0728,0.0728,0.0729,0.0729,0,-0.0943,-0.0993,-0.1044,-0.1082,-0.1115,-0.1109,-0.1087,-0.1038,-0.0931,-0.0764,-0.0578,-0.028,0.0017,0.0255,0.0534,0.0711,0.0684,0.0724,0.0659,0.0654,0.065,0.0612,0.0699,0.0699,0.0699,0.0699,0,0,-0.0952,-0.1012,-0.1051,-0.1121,-0.1147,-0.1154,-0.1135,-0.1035,-0.0908,-0.0714,-0.0536,-0.0298,0.0018,0.0208,0.0431,0.0569,0.0557,0.0573,0.0582,0.0475,0.0468,0.0614,0.0551,0,0,0,0,0]}],[{"header":{"parameterUnit":"m.s-1","parameterCategory":2,"la1":30.2991,"la2":30.254,"lo1":-89.0895,"lo2":-89.0444,"dy":0.0017,"dx":0.0017,"nx":28,"ny":28,"refTime":"2025-09-11T09:00:00:Z","depth":"4","parameterNumber":2,"parameterNumberName":"U-component_of_CURRENTS"},"data":[0,0,0,0,0,0,0,0,0,0,0,0,0,0,0,0,0,0,0,0,0,0,0,0,0,0,0,0,0,0,0,0,0,0,0,0,0,0,0,0,0,0,0,0,0,0,0,0,0,0,0,0,0,0,0,0,0,0,-0.1401,-0.1402,0,-0.1467,-0.1467,-0.1468,-0.149,-0.149,-0.149,-0.149,-0.1555,-0.1557,-0.1559,0,0,0,0,0,0,0,0,0,0,0,0,0,-0.1267,-0.127,-0.1401,-0.1402,-0.1403,-0.1467,-0.1467,-0.1468,-0.149,-0.149,-0.149,-0.149,-0.1555,-0.1557,-0.1559,0,0,0,0,0,0,0,0,0,0,0,0,0,-0.1325,-0.127,-0.1401,-0.1424,-0.1427,-0.1466,-0.1467,-0.1468,-0.149,-0.149,-0.149,-0.149,-0.1554,-0.1557,-0.1559,-0.1575,0,0,-0.1567,-0.1568,0,0,0,0,0,0,0,0,-0.1322,-0.133,-0.142,-0.1423,-0.1426,-0.1473,-0.1444,-0.1505,-0.149,-0.1462,-0.149,-0.149,-0.153,-0.1534,-0.1542,-0.1578,-0.1581,-0.1568,-0.1569,-0.157,-0.1571,0,0,0,0,0,0,0,-0.1318,-0.1327,-0.1424,-0.1421,-0.1425,-0.1422,-0.143,-0.1456,-0.1493,-0.1465,-0.1467,-0.148,-0.1531,-0.154,-0.1544,-0.1582,-0.1567,-0.157,-0.1571,-0.1572,-0.1669,-0.167,0,0,0,0,0,0,-0.1318,-0.1324,-0.1422,-0.1426,-0.1377,-0.1425,-0.1434,-0.1455,-0.1493,-0.1499,-0.148,-0.1481,-0.1535,-0.1541,-0.1546,-0.1622,-0.157,-0.1573,-0.1574,-0.1668,-0.1669,-0.167,0,0,0,0,0,0,-0.1315,-0.1327,-0.1419,-0.1378,-0.139,-0.1428,-0.1451,-0.1456,-0.1492,-0.1504,-0.151,-0.1513,-0.1535,-0.1543,-0.159,-0.1622,-0.1574,-0.1576,-0.1667,-0.1668,-0.167,-0.1737,0,0,0,0,0,0,-0.1311,-0.1325,-0.1354,-0.1379,-0.1393,-0.1455,-0.1452,-0.1458,-0.1499,-0.1502,-0.1534,-0.1539,-0.1536,-0.1586,-0.1592,-0.1625,-0.1578,-0.1665,-0.1667,-0.1669,-0.1734,-0.1741,-0.1747,0,0,0,0,0,-0.1306,-0.1343,-0.1355,-0.1368,-0.1427,-0.1456,-0.1463,-0.1486,-0.1501,-0.1518,-0.1544,-0.1539,-0.1601,-0.1589,-0.1596,-0.1631,-0.1665,-0.1667,-0.1669,-0.1731,-0.1739,-0.1747,0,0,0,0,0,0,-0.1295,-0.135,-0.1363,-0.1414,-0.1439,-0.1461,-0.1492,-0.1506,-0.154,-0.1554,-0.1561,-0.1567,-0.1615,-0.1614,-0.16,-0.1661,-0.1629,-0.1633,-0.1674,-0.1682,-0.1688,-0.1704,-0.158,0,0,0,0,0,-0.1308,-0.1352,-0.1388,-0.1427,-0.1448,-0.1476,-0.1499,-0.1514,-0.1542,-0.1559,-0.1582,-0.1605,-0.1626,-0.1648,-0.1662,-0.1708,-0.1692,-0.173,-0.1736,-0.1742,-0.1758,-0.1765,-0.1774,-0.1678,-0.1678,-0.1678,0,0,-0.1311,-0.1349,-0.1373,-0.1428,-0.1455,-0.1498,-0.149,-0.1533,-0.1569,-0.1561,-0.1626,-0.1632,-0.1641,-0.1683,-0.1705,-0.1693,-0.1756,-0.1745,-0.175,-0.1763,-0.1768,-0.1778,-0.1786,-0.1679,-0.1679,-0.1679,0,0,-0.1336,-0.138,-0.1425,-0.1458,-0.151,-0.1529,-0.1549,-0.159,-0.1612,-0.1664,-0.1664,-0.1699,-0.1735,-0.1749,-0.176,-0.1815,-0.1787,-0.1813,-0.1871,-0.1877,-0.1885,-0.1892,-0.1864,-0.1868,-0.1822,-0.1822,-0.1822,0,-0.1336,-0.1408,-0.1438,-0.1491,-0.153,-0.155,-0.1602,-0.1626,-0.1674,-0.1699,-0.1694,-0.1757,-0.1769,-0.182,-0.1837,-0.1834,-0.1816,-0.1841,-0.1887,-0.1893,-0.1899,-0.1869,-0.1872,-0.1826,-0.1825,-0.1825,-0.1824,0,-0.1392,-0.1459,-0.149,-0.1568,-0.1605,-0.1655,-0.1693,-0.1731,-0.1761,-0.1781,-0.1838,-0.1849,-0.1885,-0.1891,-0.1888,-0.1939,-0.1903,-0.1889,-0.1868,-0.1913,-0.1877,-0.188,-0.1831,-0.1829,-0.1828,-0.1827,0,0,-0.1362,-0.1504,-0.1519,-0.1571,-0.1658,-0.1685,-0.1756,-0.1815,-0.1854,-0.1895,-0.1944,-0.1988,-0.1988,-0.1999,-0.1994,-0.201,-0.2033,-0.1977,-0.1976,-0.1952,-0.2022,-0.1871,-0.1859,-0.2026,-0.2027,-0.2028,-0.1971,0,-0.1398,-0.1516,-0.1579,-0.1677,-0.1736,-0.1788,-0.1843,-0.1894,-0.1929,-0.1974,-0.1998,-0.2034,-0.2028,-0.2042,-0.2064,-0.2038,-0.2047,-0.2048,-0.1979,-0.1977,-0.1841,-0.186,-0.2033,-0.1973,-0.1974,-0.1974,-0.1974,0,-0.1424,-0.1508,-0.1625,-0.174,-0.1769,-0.1826,-0.1912,-0.1961,-0.2024,-0.2049,-0.2097,-0.21,-0.2142,-0.2118,-0.212,-0.2119,-0.2087,-0.2061,-0.2058,-0.1901,-0.1832,-0.1923,-0.1978,-0.1978,-0.1978,-0.1977,-0.1977,0,-0.1376,-0.1527,-0.1626,-0.167,-0.1803,-0.1858,-0.1916,-0.1988,-0.202,-0.2092,-0.211,-0.216,-0.2164,-0.2162,-0.2118,-0.2122,-0.209,-0.2081,-0.1916,-0.1903,-0.2027,-0.202,-0.2086,-0.2086,-0.2086,-0.2086,-0.2086,0,-0.1373,-0.1446,-0.1616,-0.1668,-0.1755,-0.1848,-0.1919,-0.1978,-0.205,-0.2069,-0.214,-0.2136,-0.2176,-0.2156,-0.2129,-0.2014,-0.2096,-0.1925,-0.1885,-0.2052,-0.2049,-0.2027,-0.2021,-0.2084,-0.2085,-0.2085,-0.2085,0,-0.1289,-0.1414,-0.1526,-0.1694,-0.1738,-0.1793,-0.1906,-0.1937,-0.2024,-0.205,-0.2071,-0.2118,-0.2075,-0.2083,-0.2051,-0.1989,-0.1921,-0.1862,-0.2021,-0.199,-0.1727,-0.1725,-0.1671,-0.1665,-0.166,-0.1656,-0.1653,0,-0.1249,-0.131,-0.1513,-0.1565,-0.1645,-0.174,-0.1785,-0.1903,-0.1924,-0.2002,-0.1988,-0.1992,-0.1998,-0.1825,-0.1862,-0.179,-0.1772,-0.1736,-0.176,-0.1722,-0.1688,-0.1694,-0.1698,-0.1645,-0.1644,-0.1643,-0.1642,0,-0.116,-0.1258,-0.1356,-0.1477,-0.1556,-0.1622,-0.1699,-0.1704,-0.1809,-0.1905,-0.1837,-0.1802,-0.1742,-0.1702,-0.1654,-0.1612,-0.1765,-0.1686,-0.1696,-0.1718,-0.169,-0.1663,-0.1673,-0.1625,-0.1627,-0.1629,-0.163,0,-0.1078,-0.1127,-0.1271,-0.1358,-0.1448,-0.1472,-0.1538,-0.1554,-0.1593,-0.1689,-0.165,-0.1658,-0.1705,-0.1605,-0.1564,-0.1507,-0.1487,-0.1456,-0.1478,-0.1497,-0.1467,-0.1408,-0.1218,0,0,0,0,0,-0.0977,-0.1032,-0.1122,-0.1224,-0.1307,-0.1352,-0.1456,-0.1523,-0.1628,-0.153,-0.1588,-0.1522,-0.1444,-0.1453,-0.1352,-0.1489,-0.1503,-0.1369,-0.1482,-0.1533,-0.1552,-0.1535,0,0,0,0,0,0,-0.0918,-0.1002,-0.1083,-0.1088,-0.111,-0.1178,-0.1236,-0.1318,-0.1277,-0.1382,-0.1337,-0.1417,-0.1357,-0.1451,-0.1308,-0.1313,-0.1353,-0.1388,-0.1384,-0.1522,-0.154,-0.1555,-0.1544,0,0,0,0,0]},{"header":{"parameterUnit":"m.s-1","parameterCategory":2,"la1":30.2991,"la2":30.254,"lo1":-89.0895,"lo2":-89.0444,"dy":0.0017,"dx":0.0017,"nx":28,"ny":28,"refTime":"2025-09-11T09:00:00:Z","depth":"4","parameterNumber":3,"parameterNumberName":"V-component_of_CURRENTS"},"data":[0,0,0,0,0,0,0,0,0,0,0,0,0,0,0,0,0,0,0,0,0,0,0,0,0,0,0,0,0,0,0,0,0,0,0,0,0,0,0,0,0,0,0,0,0,0,0,0,0,0,0,0,0,0,0,0,0,0,-0.027,-0.0269,0,-0.0235,-0.0235,-0.0234,-0.0209,-0.0209,-0.0208,-0.0208,-0.0142,-0.0141,-0.014,0,0,0,0,0,0,0,0,0,0,0,0,0,-0.0298,-0.0298,-0.027,-0.0269,-0.0269,-0.0235,-0.0235,-0.0234,-0.0209,-0.0209,-0.0208,-0.0208,-0.0143,-0.0141,-0.0139,0,0,0,0,0,0,0,0,0,0,0,0,0,-0.0278,-0.0298,-0.027,-0.0251,-0.0248,-0.0235,-0.0235,-0.0234,-0.0209,-0.0209,-0.0208,-0.0207,-0.0143,-0.0141,-0.0139,-0.0138,0,0,-0.0133,-0.0132,0,0,0,0,0,0,0,0,-0.028,-0.0278,-0.0254,-0.0252,-0.0249,-0.0224,-0.022,-0.02,-0.0209,-0.0226,-0.0208,-0.0207,-0.0166,-0.0162,-0.016,-0.0135,-0.0132,-0.0133,-0.0131,-0.0131,-0.013,0,0,0,0,0,0,0,-0.0281,-0.0279,-0.0258,-0.0253,-0.0251,-0.0238,-0.0235,-0.0217,-0.0201,-0.0224,-0.0222,-0.0216,-0.0165,-0.0162,-0.0158,-0.0131,-0.0133,-0.0131,-0.013,-0.0129,-0.0085,-0.0086,0,0,0,0,0,0,-0.0283,-0.028,-0.0259,-0.0257,-0.0261,-0.0238,-0.0234,-0.0234,-0.0201,-0.0195,-0.0216,-0.0214,-0.0166,-0.016,-0.0156,-0.013,-0.0131,-0.0129,-0.0127,-0.0085,-0.0086,-0.0086,0,0,0,0,0,0,-0.0284,-0.0282,-0.026,-0.0266,-0.0262,-0.0238,-0.0238,-0.0234,-0.0231,-0.0195,-0.0189,-0.0217,-0.0165,-0.0158,-0.0137,-0.0128,-0.0128,-0.0126,-0.0085,-0.0085,-0.0086,-0.0093,0,0,0,0,0,0,-0.0285,-0.0283,-0.0287,-0.0266,-0.0262,-0.0255,-0.0238,-0.0234,-0.0227,-0.0224,-0.0193,-0.0187,-0.0164,-0.0141,-0.0135,-0.0125,-0.0124,-0.0085,-0.0085,-0.0086,-0.0093,-0.0094,-0.0094,0,0,0,0,0,-0.0287,-0.0295,-0.0288,-0.0285,-0.0268,-0.0255,-0.0252,-0.0234,-0.0227,-0.0229,-0.0205,-0.0188,-0.0138,-0.0139,-0.0133,-0.0122,-0.0085,-0.0085,-0.0086,-0.0092,-0.0093,-0.0094,0,0,0,0,0,0,-0.031,-0.0292,-0.0284,-0.0287,-0.0273,-0.025,-0.025,-0.0239,-0.0223,-0.0221,-0.0189,-0.018,-0.0159,-0.0144,-0.0146,-0.0112,-0.0109,-0.0108,-0.0116,-0.0117,-0.0118,-0.011,-0.0122,0,0,0,0,0,-0.0318,-0.0322,-0.0298,-0.0303,-0.0295,-0.0275,-0.0269,-0.0257,-0.0238,-0.0231,-0.0206,-0.0181,-0.0156,-0.014,-0.0121,-0.0102,-0.007,-0.0092,-0.0093,-0.0093,-0.0084,-0.0023,-0.0017,-0.0086,-0.0086,-0.0086,0,0,-0.0331,-0.032,-0.0324,-0.0309,-0.0297,-0.0286,-0.0271,-0.0265,-0.0252,-0.0226,-0.0205,-0.0185,-0.0154,-0.013,-0.0119,-0.0114,-0.0061,-0.0094,-0.0094,-0.0084,-0.0023,-0.0015,-0.0009,-0.0086,-0.0086,-0.0086,0,0,-0.0353,-0.0347,-0.0353,-0.0339,-0.0321,-0.0304,-0.0303,-0.028,-0.0266,-0.0248,-0.0221,-0.019,-0.0165,-0.0127,-0.0107,-0.0101,-0.007,-0.0106,-0.0095,-0.0037,-0.003,-0.0024,0.0012,0.0022,-0.0102,-0.0102,-0.0102,0,-0.037,-0.037,-0.0353,-0.0348,-0.0338,-0.0312,-0.0309,-0.0289,-0.0262,-0.0245,-0.0244,-0.0181,-0.0156,-0.0104,-0.0103,-0.0098,-0.0073,-0.0093,-0.0036,-0.0029,-0.0022,0.0014,0.0024,-0.0102,-0.0102,-0.0102,-0.0102,0,-0.0388,-0.0386,-0.0388,-0.0371,-0.0357,-0.0355,-0.0319,-0.0304,-0.0286,-0.0259,-0.0216,-0.0176,-0.0134,-0.0123,-0.011,-0.0052,-0.0054,-0.0046,-0.003,-0.0015,0.0021,0.0032,-0.0103,-0.0103,-0.0102,-0.0102,0,0,-0.0431,-0.0408,-0.041,-0.0405,-0.0371,-0.0366,-0.0336,-0.0302,-0.0283,-0.0243,-0.021,-0.0154,-0.013,-0.0106,-0.0078,-0.0024,0.0041,-0.0019,-0.0016,0.0022,0.0153,0.0122,0.0131,0.0056,0.0059,0.006,0.0155,0,-0.0452,-0.0459,-0.0432,-0.0431,-0.0428,-0.0387,-0.0364,-0.0326,-0.029,-0.0252,-0.0185,-0.0153,-0.0123,-0.0111,-0.0045,0.0011,0.0072,0.0013,0.0128,0.0132,0.0107,0.0144,0.0067,0.0163,0.0166,0.0168,0.017,0,-0.0473,-0.0476,-0.0488,-0.0462,-0.0457,-0.0451,-0.0412,-0.0386,-0.0312,-0.0282,-0.0215,-0.0172,-0.0087,-0.0073,0.0069,0.0026,0.0093,0.0145,0.015,0.0135,0.0122,0.0148,0.0191,0.0189,0.0188,0.0186,0.0185,0,-0.0519,-0.0509,-0.0526,-0.052,-0.0488,-0.0485,-0.0466,-0.0404,-0.0381,-0.0305,-0.028,-0.0171,-0.0129,-0.0016,0.0092,0.008,0.0243,0.0241,0.0285,0.0283,0.0286,0.0278,0.0359,0.0359,0.0359,0.0359,0.0358,0,-0.0545,-0.0556,-0.0558,-0.0568,-0.0585,-0.054,-0.0538,-0.0497,-0.0435,-0.0398,-0.0307,-0.0254,-0.0113,-0.0006,0.0097,0.0225,0.0256,0.0301,0.0315,0.0276,0.0267,0.0294,0.0285,0.0362,0.0361,0.0361,0.036,0,-0.0582,-0.0583,-0.0607,-0.0605,-0.061,-0.0626,-0.0601,-0.0588,-0.0523,-0.0471,-0.0451,-0.0315,-0.0178,-0.0033,0.0144,0.0216,0.0346,0.0387,0.0328,0.0334,0.0343,0.0333,0.0443,0.0443,0.0443,0.0443,0.0443,0,-0.0594,-0.0616,-0.0656,-0.0684,-0.069,-0.0705,-0.0708,-0.0648,-0.0621,-0.05,-0.0474,-0.0339,-0.0236,0.0001,0.0142,0.034,0.0365,0.0422,0.0398,0.0354,0.0358,0.0347,0.0337,0.0443,0.0443,0.0443,0.0443,0,-0.0618,-0.0649,-0.0677,-0.0745,-0.0775,-0.079,-0.0784,-0.0768,-0.0676,-0.0622,-0.0475,-0.0335,-0.0181,-0.0003,0.0146,0.029,0.0377,0.0421,0.0422,0.04,0.0355,0.0356,0.0346,0.0442,0.0443,0.0443,0.0443,0,-0.0639,-0.0679,-0.0734,-0.0786,-0.0837,-0.0853,-0.0842,-0.078,-0.0734,-0.0582,-0.0536,-0.0341,-0.0223,-0.0027,0.0118,0.0245,0.0271,0.0302,0.0309,0.0311,0.0237,0.0158,0.0212,0,0,0,0,0,-0.0641,-0.0696,-0.0762,-0.0821,-0.0875,-0.0893,-0.0878,-0.0846,-0.076,-0.066,-0.0587,-0.0428,-0.0189,-0.0082,0.004,0.0084,0.0263,0.0227,0.0294,0.0441,0.0441,0.0373,0,0,0,0,0,0,-0.0647,-0.0719,-0.0764,-0.0839,-0.0882,-0.0922,-0.0911,-0.0852,-0.0778,-0.0673,-0.0543,-0.0426,-0.0202,-0.0265,0.0033,0.0074,0.0127,0.0352,0.0354,0.044,0.0441,0.0441,0.0372,0,0,0,0,0]}]]